星链-5402 (STARLINK-5402 )

导读

STARLINK-5402是美国SpaceX星链星座的一颗卫星,于北京时间2022年12月28日发射入轨,属于星链第一代组网卫星。星链计划旨在搭建近地轨道全球卫星互联网星座,该卫星运行于近地轨道,提供全球范围低延迟宽带互联网接入服务,是星链星座完成一期组网建设的重要组成部分,助力实现偏远地区、海洋及航空等场景的网络覆盖,目前星链系统已服务超860万用户,覆盖全球百余个国家和地区。

Basic Information
目录编号:
54869
目录名称:
STARLINK-5402
国际标识:
2022-177BB
轨道中心:
EARTH
卫星名称:
星链-5402
卫星全名:
星链-5402 (STARLINK-5402 )
卫星状态:
在轨 (已飞行1346 天)
发射日期:
2022-12-28 UTC
国别 :
美国 (US)
星等 :
--
Orbit Information
数据来源 国际轨道数据 AOE轨道数据
星历时间 2026-09-03T14:25:05+0800
1天前
查看轨道信息
2026-09-03T23:00:00+0800
16小时前
查看轨道信息
半长轴 6861.209km 6861.126km
偏心率 0.0000946 0.0000411
轨道倾角 43.002° 42.994°
近地点辐角 232.090° 222.483°
升交点赤经 199.156° 197.140°
平近点角 127.987° 306.405°
近地点 482.422km 482.707km
远地点 483.722km 483.271km
周期 94.267分钟 94.266分钟
每日圈数 15.275726 15.276001
Detailed Information
固有亮度:
5
最大亮度:
2.5
卫星平台:
Starlink v1.5
覆盖范围:
全球
运营商:
太空探索技术公司
运营商所在国:
美国
制造商(研发单位):
太空探索技术公司
制造商所在国:
美国
使用方式:
暂无
Satellite Introduction
星链(Starlink)计划是由太空探索技术公司(SpaceX)提出的一个巨型低轨卫星互联网星座项目,计划在2019年至2024年间在太空搭建由约1.2万颗卫星组成的“星链”网络,其中1584颗将部署在地球上空550千米处的近地轨道,并从2020年开始工作。该卫星仍在工作。
2D Orbit Map
3D Orbit Map
Orbit Altitude Analysis Chart
Orbit Inclination Analysis Chart
Orbit Comprehensive Analysis Chart
View Comprehensive Chart
Conjunction Data List
Event ID Objects TCA Miss Dist (km) Collision Risk Probability Collision Risk Index (CRI) Action
CDM_260901-074205-486905-916722
2026-09-01T
07:42:17+0000
0.385 km
远距离
1.051461E-4 高风险 0.75
CDM_260901-061605-486905-821021
2026-09-01T
06:16:58+0000
0.938 km
远距离
1.824818E-5 中风险 0.6
CDM_260905-022805-486906-686121
2026-09-05T
02:28:33+0000
1.070 km
极远距离
1.59883E-5 中风险 0.59
CDM_260901-034605-486905-916722
2026-09-01T
03:46:54+0000
0.800 km
远距离
1.209874E-5 中风险 0.57
CDM_260901-080205-486905-985622
2026-09-01T
08:02:19+0000
1.558 km
极远距离
4.589126E-6 低风险 0.48
CDM_260901-044205-486905-821021
2026-09-01T
04:42:49+0000
1.410 km
极远距离
4.541278E-6 低风险 0.48
CDM_260905-040205-486906-686121
2026-09-05T
04:02:42+0000
2.059 km
极远距离
2.050033E-6 低风险 0.41
CDM_260829-020505-486905-511223
2026-08-29T
02:05:16+0000
2.222 km
极远距离
1.985975E-6 低风险 0.41
CDM_260905-030605-486906-455822
QUICK3 (64558)
2026-09-05T
03:06:59+0000
2.388 km
极远距离
1.87905E-6 低风险 0.4
CDM_260901-060805-486905-916721
2026-09-01T
06:08:08+0000
2.024 km
极远距离
7.22064E-7 极低风险 0.32